[[{"header":{"parameterUnit":"m.s-1","parameterCategory":1,"la1":30.2992,"la2":30.254,"lo1":-89.0895,"lo2":-89.0443,"dy":0.0025,"dx":0.0025,"nx":19,"ny":19,"refTime":"2026-05-09T09:00:00:Z","depth":0,"parameterNumber":2,"parameterNumberName":"U-component_of_WINDS"},"data":[0,0,0,-1.7581,-1.758,-1.7489,-1.7488,-1.7401,-1.74,0,0,0,0,0,0,0,0,0,0,0,-1.7625,-1.7625,-1.7581,-1.7579,-1.7489,-1.7488,-1.7401,-1.74,0,0,0,0,0,0,0,0,0,0,0,-1.7625,-1.7625,-1.7625,-1.7579,-1.7489,-1.7488,-1.7401,-1.7459,0,0,0,0,0,0,0,0,0,0,-1.7542,-1.7599,-1.7625,-1.7625,-1.7579,-1.7489,-1.7488,-1.7461,-1.7456,-1.7454,0,-1.7457,0,-1.7428,-1.7396,-1.7396,0,0,0,-1.7566,-1.7604,-1.7565,-1.7625,-1.7578,-1.7489,-1.7526,-1.7458,-1.7451,-1.7446,-1.7455,-1.7451,-1.7426,-1.7396,-1.7395,-1.7431,-1.7432,0,0,-1.7571,-1.7617,-1.757,-1.7561,-1.7577,-1.7529,-1.7523,-1.7453,-1.7466,-1.7455,-1.7449,-1.7425,-1.7395,-1.7395,-1.7431,-1.7432,0,0,0,-1.7594,-1.7621,-1.7583,-1.7566,-1.7547,-1.7527,-1.752,-1.7469,-1.7453,-1.7448,-1.7424,-1.7395,-1.7394,-1.743,-1.7431,-1.7515,0,0,0,-1.7597,-1.7635,-1.7586,-1.7613,-1.7549,-1.7507,-1.7538,-1.7458,-1.7448,-1.7424,-1.7395,-1.7394,-1.7429,-1.743,-1.751,-1.7546,0,0,0,-1.7625,-1.7638,-1.7631,-1.7616,-1.7579,-1.7507,-1.7486,-1.7455,-1.7435,-1.7396,-1.7394,-1.7428,-1.743,-1.7507,-1.754,-1.757,0,0,0,-1.7668,-1.7705,-1.7633,-1.7665,-1.758,-1.756,-1.7486,-1.7469,-1.7446,-1.7395,-1.7429,-1.7431,-1.7505,-1.7536,-1.7566,-1.7604,-1.7624,0,0,-1.774,-1.7715,-1.7731,-1.7664,-1.7669,-1.757,-1.7588,-1.7522,-1.7476,-1.7449,-1.7449,-1.7512,-1.7539,-1.7569,-1.772,-1.7736,0,0,0,-1.7769,-1.7781,-1.7772,-1.7753,-1.7706,-1.7668,-1.7596,-1.7572,-1.7547,-1.7471,-1.7529,-1.7544,-1.756,-1.7576,-1.759,-1.7601,-1.744,-1.744,-1.744,-1.7936,-1.7877,-1.7899,-1.783,-1.7813,-1.774,-1.7721,-1.7676,-1.7619,-1.7635,-1.7626,-1.7725,-1.7745,-1.7755,-1.7767,-1.7641,-1.7641,-1.7641,-1.7642,-1.8037,-1.8045,-1.7972,-1.7968,-1.7906,-1.7901,-1.7833,-1.7794,-1.7781,-1.7725,-1.7736,-1.7681,-1.7775,-1.7782,-1.7647,-1.7646,-1.7646,-1.7645,-1.7645,-1.814,-1.8133,-1.8105,-1.8074,-1.8057,-1.7985,-1.7978,-1.792,-1.7866,-1.7877,-1.7863,-1.7861,-1.7853,-1.7875,-1.7875,-1.7876,-1.7876,-1.7876,-1.7876,-1.8257,-1.8223,-1.8223,-1.8179,-1.8161,-1.813,-1.8059,-1.8039,-1.8003,-1.7963,-1.7962,-1.7906,-1.7795,-1.7768,-1.7881,-1.788,-1.788,-1.7879,-1.7879,-1.8381,-1.8345,-1.8346,-1.8328,-1.8272,-1.826,-1.8188,-1.8155,-1.813,-1.8129,-1.8071,-1.7998,-1.7968,-1.7957,-1.7934,-1.8083,-1.8083,-1.8083,-1.8083,-1.8468,-1.8448,-1.8438,-1.8413,-1.8383,-1.832,-1.8324,-1.8271,-1.821,-1.8192,-1.8162,-1.8128,-1.8119,-1.8094,-1.8079,-1.8058,-1.8234,-1.8235,-1.8235,-1.8542,-1.8517,-1.8531,-1.8471,-1.8424,-1.8386,-1.8389,-1.8364,-1.8287,-1.824,-1.8176,-1.817,-1.8114,-1.8099,-1.8048,-1.8027,-1.7986,0,0]},{"header":{"parameterUnit":"m.s-1","parameterCategory":1,"la1":30.2992,"la2":30.254,"lo1":-89.0895,"lo2":-89.0443,"dy":0.0025,"dx":0.0025,"nx":19,"ny":19,"refTime":"2026-05-09T09:00:00:Z","depth":0,"parameterNumber":3,"parameterNumberName":"V-component_of_WINDS"},"data":[0,0,0,3.5032,3.5031,3.4996,3.4996,3.4942,3.4941,0,0,0,0,0,0,0,0,0,0,0,3.5039,3.5039,3.5032,3.5031,3.4996,3.4996,3.4942,3.4941,0,0,0,0,0,0,0,0,0,0,0,3.5039,3.5039,3.5038,3.5031,3.4996,3.4996,3.4942,3.4971,0,0,0,0,0,0,0,0,0,0,3.5007,3.5011,3.5039,3.5038,3.5031,3.4996,3.4996,3.4973,3.4969,3.4955,0,3.4942,0,3.4941,3.4937,3.4937,0,0,0,3.5033,3.5013,3.5007,3.5038,3.5031,3.4996,3.5013,3.4971,3.4967,3.495,3.4942,3.494,3.494,3.4937,3.4937,3.4851,3.4851,0,0,3.5035,3.503,3.501,3.5005,3.5012,3.5014,3.5011,3.4969,3.4958,3.4942,3.4939,3.4939,3.4936,3.4936,3.4852,3.4851,0,0,0,3.5039,3.5032,3.5027,3.5007,3.5001,3.5013,3.501,3.496,3.4959,3.4938,3.4939,3.4936,3.4935,3.4852,3.4852,3.4825,0,0,0,3.5041,3.5034,3.5028,3.5024,3.5002,3.4981,3.5002,3.4962,3.4958,3.4939,3.4936,3.4935,3.4853,3.4852,3.4827,3.4812,0,0,0,3.5043,3.5035,3.5029,3.5024,3.5009,3.4982,3.4978,3.4961,3.4958,3.4937,3.4935,3.4853,3.4852,3.4828,3.4815,3.4789,0,0,0,3.5043,3.5003,3.5028,3.4984,3.5009,3.4966,3.4979,3.4946,3.4925,3.4936,3.4853,3.4852,3.4829,3.4817,3.4791,3.4767,3.4756,0,0,3.499,3.4997,3.4971,3.4993,3.4945,3.4972,3.4919,3.4902,3.4903,3.4868,3.4866,3.4826,3.4815,3.479,3.47,3.4692,0,0,0,3.4953,3.4935,3.4923,3.4905,3.4893,3.4882,3.4875,3.4869,3.484,3.4885,3.481,3.4804,3.4789,3.4777,3.477,3.4758,3.4846,3.4847,3.4847,3.4871,3.4877,3.4836,3.4838,3.4819,3.4814,3.4799,3.479,3.4798,3.4781,3.477,3.4716,3.4702,3.4697,3.4684,3.4758,3.4758,3.4758,3.4758,3.4795,3.477,3.4787,3.4752,3.4758,3.4728,3.4721,3.4729,3.4701,3.4723,3.471,3.4735,3.4688,3.4676,3.4756,3.4756,3.4756,3.4756,3.4757,3.4742,3.4732,3.4727,3.4702,3.4682,3.4684,3.4658,3.4663,3.4668,3.4655,3.4645,3.4645,3.4646,3.465,3.465,3.465,3.4649,3.4649,3.4649,3.4689,3.4685,3.4663,3.465,3.4639,3.4626,3.4621,3.461,3.4599,3.4605,3.4604,3.4615,3.4683,3.4699,3.4646,3.4647,3.4647,3.4647,3.4648,3.4609,3.4629,3.4595,3.4585,3.457,3.4549,3.4558,3.4535,3.4527,3.4513,3.4527,3.4577,3.4583,3.4588,3.4602,3.4527,3.4527,3.4527,3.4527,3.4564,3.4569,3.4537,3.4521,3.4505,3.451,3.447,3.4466,3.4464,3.4459,3.447,3.4489,3.4495,3.4498,3.4505,3.4518,3.4423,3.4423,3.4423,3.4516,3.4519,3.4486,3.4487,3.4476,3.4466,3.4429,3.4408,3.4409,3.4419,3.4455,3.4459,3.449,3.45,3.4509,3.4521,3.4545,0,0]}]]